Regional Weather Roundup
Issued by NWS

Home | Current Version | Previous Version | Text Only | Print | Product List | Glossary On
Versions: 1 2 3 4 5 6 7 8 9 10 11 12 13 14 15 16 17 18 19 20 21 22 23 24 25 26 27 28 29 30 31 32 33 34 35 36 37 38 39 40 41 42 43 44 45 46 47 48 49 50
000
ASUS44 KOUN 201710
RWROK

WEATHER ROUNDUP FOR OKLAHOMA
NATIONAL WEATHER SERVICE NORMAN OK
1200 PM CDT FRI APR 20 2018

NOTE: "FAIR" INDICATES FEW OR NO CLOUDS BELOW 12,000 FEET WITH NO
      SIGNIFICANT WEATHER AND/OR OBSTRUCTIONS TO VISIBILITY.

OKZ001>007-009>012-014-015-017-201800-
NORTHWEST OKLAHOMA AND THE PANHANDLE

CITY           SKY/WX    TMP DP  RH WIND       PRES   REMARKS
GAGE           CLOUDY    61  34  36 SE22G31   30.16F
GUYMON         CLOUDY    49  33  54 SE20G28   30.11F
ENID/WOODRING  PTSUNNY   61  37  41 SE18G24   30.28F
$$

OKZ016-021>023-033>039-044-045-201800-
SOUTHWEST OKLAHOMA

CITY           SKY/WX    TMP DP  RH WIND       PRES   REMARKS
LAWTON/REGL    MOSUNNY   61  38  42 SE25G31   30.24F
LAWTON/FT SILL MOSUNNY   62  41  46 SE18G24   30.22F
FREDERICK      SUNNY     65  39  38 SE26G33   30.18F
CLINTON        MOSUNNY   60  35  39 SE25G32   30.22F
HOBART         CLOUDY    61  38  42 SE25G36   30.21F
ALTUS AFB      CLOUDY    63  35  35 SE21G30   30.20F
$$

OKZ018>020-024>031-201800-
CENTRAL OKLAHOMA

CITY           SKY/WX    TMP DP  RH WIND       PRES   REMARKS
OKLAHOMA CITY  CLOUDY    58  35  42 SE20      30.27F
OKC/WILEY POST CLOUDY    60  35  39 SE16      30.28F
OKC/TINKER AFB CLOUDY    58  34  39 SE16G24   30.27F
STILLWATER     MOSUNNY   61  34  36 SE15G22   30.31F
GUTHRIE        CLOUDY    61  34  36 SE15G23   30.29F
$$

OKZ008-013-054>072-201800-
NORTHEAST OKLAHOMA

CITY           SKY/WX    TMP DP  RH WIND       PRES   REMARKS
TULSA          CLOUDY    59  36  42 SE9       30.33F
TULSA/JONES    SUNNY     58  34  40 SE13      30.34F
PONCA CITY     MOSUNNY   61  33  35 SE16      30.31S
BARTLESVILLE   CLOUDY    60  33  36 SE14      30.36F
MUSKOGEE       SUNNY     59  36  42 SE15      30.37S
$$

OKZ032-040>043-046>053-073>077-201800-
SOUTH CENTRAL/SOUTHEAST OKLAHOMA

CITY           SKY/WX    TMP DP  RH WIND       PRES   REMARKS
ARDMORE/DWNTWN SUNNY     59  32  36 SE9G18    30.29F
MCALESTER      MOSUNNY   60  35  39 SE9       30.32F
$$





USA.gov is the U.S. government's official web portal to all federal, state and local government web resources and services.